Location: Dana
(41.8364°N, 106.7042°W)
Time: 20:01:33
(UTC+00:00)

Tiros 1 despin weight - Pass Details

Date: 19 May 2026
Orbit: 555 x 591 km, 48.2° (Epoch: 1 June)

Event Time Altitude Azimuth Distance (km) Brightness Sun altitude
Rises 15:29:03 0° 297° (WNW) 2,743 ? 40.0°
Reaches altitude 10° 15:31:19 10° 299° (WNW) 1,842 ? 40.4°
Maximum altitude 15:35:31 75° 25° (NNE) 578 ? 41.2°
Drops below altitude 10° 15:39:41 10° 111° (ESE) 1,828 ? 41.9°
Sets 15:41:56 0° 113° (ESE) 2,721 ? 42.4°
